EHI
4 4 4 4 2 3 4 4 4 2 4 8 9 11 13 12 6 4 5 4 1 0 0 0 0 0 0 0 0 0 0 0 0 0 0 0 0 0
5 6 7 6 4 3 4 5 6 6 7 8 9 11 12 10 6 5 6 3 1 0 0 0 0 0 0 0 0 0 0 0 0 0 0 0 0 0
7 8 11 11 8 6 7 8 9 10 10 10 10 12 15 12 8 6 6 3 1 0 0 0 0 0 0 0 0 0 0 0 0 0 0 0 0 0
11 12 15 16 13 13 13 12 12 13 13 13 13 15 18 16 11 9 6 3 1 0 0 0 0 0 0 0 0 0 0 0 0 0 0 0 0 0
18 16 16 16 17 18 18 16 15 14 14 14 15 16 17 16 13 11 9 6 2 0 0 0 0 0 0 0 0 0 0 0 0 0 0 0 0 0
25 22 17 15 16 17 18 18 16 16 16 15 13 14 15 15 13 12 12 10 5 1 0 0 0 0 0 0 0 0 0 0 0 0 0 0 0 0
31 28 22 17 15 14 14 14 15 16 18 16 12 11 13 14 13 12 12 12 9 5 2 1 1 0 0 0 0 0 0 0 0 0 0 0 0 0
33 31 26 19 15 13 11 9 9 12 14 13 10 9 11 13 13 10 9 10 10 8 6 4 2 1 1 1 0 0 0 0 0 0 0 0 0 0
32 31 26 19 15 15 12 8 7 7 7 6 7 7 9 11 11 8 6 7 8 8 8 6 3 2 2 2 1 0 0 0 0 0 0 0 0 0
31 31 28 21 16 15 13 11 10 7 3 2 2 3 5 8 8 6 5 5 5 6 7 6 5 3 3 2 1 0 0 0 0 0 0 0 0 0
29 28 26 21 15 12 13 13 12 10 5 1 0 1 2 3 3 4 6 6 5 5 6 7 6 5 4 2 1 0 0 0 0 0 0 0 0 0
24 22 19 15 9 7 10 12 12 10 7 4 3 2 1 1 2 4 6 6 5 6 7 7 7 6 4 2 1 0 0 0 0 0 0 0 0 0
18 17 14 8 3 3 6 9 9 8 8 7 7 6 4 3 4 6 8 8 6 6 7 7 7 5 4 2 1 0 0 0 0 0 0 0 0 0
13 13 10 5 1 0 2 4 5 5 5 7 8 8 6 5 6 9 11 10 7 6 7 7 6 4 3 2 1 0 0 0 0 0 0 0 0 0
8 7 5 2 0 0 0 1 2 3 4 5 7 8 7 7 7 9 10 9 7 5 5 6 5 3 3 2 1 0 0 0 0 0 0 0 0 0
3 3 3 2 1 1 1 1 2 3 4 4 6 7 7 7 8 8 8 7 5 4 4 4 4 3 3 2 1 0 0 0 0 0 0 0 0 0
3 4 5 5 4 3 3 3 4 5 5 5 6 7 7 6 6 7 7 6 5 3 3 4 3 3 2 1 0 0 0 0 0 1 1 0 0 0
4 5 7 7 6 5 4 4 5 6 6 6 5 6 6 5 4 5 5 5 5 4 4 5 4 3 2 1 0 0 0 0 0 1 1 0 0 0
3 3 4 4 5 6 4 4 5 7 8 7 6 5 5 4 3 3 4 5 5 5 5 5 4 3 3 1 0 0 0 0 0 0 0 0 0 0
1 1 2 2 3 5 5 5 6 8 9 8 7 6 5 4 3 4 5 5 5 5 6 6 4 3 3 2 1 0 0 0 1 1 1 1 0 0
1 2 3 2 2 4 6 8 8 8 8 7 7 6 6 5 4 3 4 4 4 4 4 5 4 3 3 3 2 0 0 1 1 1 2 1 0 0
3 3 4 3 3 4 5 7 7 7 7 6 6 6 6 5 4 4 4 4 3 3 3 4 3 3 4 3 2 1 1 1 1 1 1 1 0 0
3 4 4 4 3 4 4 4 4 6 6 6 6 6 6 5 5 5 5 5 4 3 3 3 3 3 3 3 2 2 2 1 0 0 0 0 0 0
Wind_Speed
1 1 1 1 1 1 1 1 1 1 1 1 1 1 1 3 5 3 3 5 5 5 5 4 4 3 3 3 3 2 1 1 1 2 2 2 3 3
1 0 1 1 1 1 1 1 1 1 1 1 1 1 1 2 4 2 3 7 6 6 6 5 5 4 4 4 3 3 2 2 2 2 3 3 3 3
1 1 1 1 1 1 1 1 1 1 1 1 0 0 1 1 2 2 3 4 4 6 6 6 5 5 4 4 4 3 3 2 2 3 3 3 4 4
1 1 1 1 1 1 1 1 1 0 1 1 0 0 1 1 2 3 2 3 3 6 7 6 6 5 5 5 4 4 4 3 3 3 3 4 4 4
1 1 1 1 1 1 1 1 1 1 1 1 1 1 1 1 1 2 2 1 3 4 6 6 6 7 6 6 5 5 4 4 4 4 4 4 4 4
1 1 1 1 1 2 1 1 1 1 1 1 1 1 1 1 2 2 1 1 1 3 3 4 6 7 7 7 6 6 6 6 5 5 5 4 4 4
1 0 0 0 0 1 1 1 1 1 1 1 1 1 1 1 2 2 2 1 2 2 2 3 4 3 4 5 6 7 7 7 6 6 6 5 5 5
1 1 2 2 2 2 1 0 0 1 1 1 1 1 2 2 1 2 2 2 2 2 2 2 3 3 4 4 6 9 9 8 7 7 6 6 6 5
2 2 2 1 2 2 2 3 2 2 2 2 2 2 2 2 2 2 2 2 2 2 2 2 2 2 3 4 10 11 10 10 9 8 8 7 7 6
2 2 2 2 2 1 2 3 3 2 3 3 2 3 2 1 2 3 3 3 3 3 3 2 2 2 2 3 9 12 12 11 10 10 9 9 8 7
3 3 2 2 2 2 3 3 3 3 3 3 3 3 3 3 2 1 2 2 3 3 3 2 2 2 2 3 5 11 11 11 11 11 10 9 9 7
3 3 4 3 3 3 3 3 4 3 2 2 2 3 4 5 5 4 3 3 3 2 2 3 3 2 2 2 3 5 6 8 10 10 10 10 10 6
3 3 3 5 5 5 5 4 5 4 3 4 4 4 4 4 4 4 4 3 4 3 2 2 2 2 2 1 2 4 5 5 5 6 9 10 10 8
4 3 2 3 6 7 6 5 5 4 4 4 3 3 3 3 4 4 4 4 4 4 4 3 2 3 3 2 2 3 4 4 5 5 5 7 9 10
4 3 3 5 6 6 7 7 5 4 4 4 4 4 4 3 3 3 4 4 4 4 4 4 4 4 3 4 3 3 3 4 5 5 5 6 6 6
4 4 5 6 6 5 5 5 5 5 4 5 4 3 3 3 3 3 3 3 3 3 4 4 4 4 4 4 3 4 4 4 5 5 5 5 5 6
2 3 3 3 3 4 4 4 4 4 5 5 4 3 3 3 3 3 2 2 3 3 3 3 4 4 4 4 4 4 4 4 4 5 5 5 6 6
2 4 4 4 4 4 4 4 3 4 4 4 4 4 3 3 3 3 3 3 4 4 4 3 2 2 2 3 4 4 3 4 3 4 4 5 6 5
4 5 5 4 4 3 3 3 3 3 3 3 3 3 3 3 3 3 3 3 3 4 3 3 3 4 4 5 4 5 4 4 4 4 4 4 5 5
4 5 5 4 3 3 3 3 3 2 2 3 3 3 3 4 3 3 3 3 3 3 3 3 3 4 6 5 4 4 7 5 4 4 4 3 2 3
5 4 4 4 3 3 3 3 3 3 3 3 3 3 3 4 4 4 4 4 4 4 4 4 4 5 3 2 3 4 4 6 6 4 4 3 3 4
5 4 3 3 3 3 3 3 3 3 4 4 4 3 3 3 4 5 4 4 3 4 4 3 3 3 3 4 5 5 4 3 5 6 6 5 5 5
3 3 3 3 3 3 3 4 4 4 3 3 3 3 3 3 3 4 4 4 3 3 3 3 3 3 4 4 5 4 4 4 3 3 4 5 7 7
Wind_Direction
244 241 271 276 281 288 268 200 200 241 246 224 191 177 159 113 144 153 135 152 164 170 172 175 175 172 173 170 163 164 167 173 177 185 178 179 184 186
214 245 282 290 301 295 286 279 247 222 262 255 236 165 150 144 152 156 146 154 169 173 177 183 185 184 183 179 171 172 176 176 180 179 175 177 179 176
266 235 243 278 313 304 295 284 258 167 226 272 107 100 117 115 151 193 168 166 171 178 181 184 187 187 188 179 178 178 177 176 176 162 160 166 170 168
253 258 258 255 252 295 308 303 304 244 182 245 151 176 194 180 190 214 190 179 171 179 185 186 183 185 184 182 179 177 174 171 164 154 149 154 156 156
237 245 258 269 268 287 290 293 288 286 181 199 234 191 192 194 196 236 197 184 190 171 183 186 188 183 183 183 179 176 176 173 165 153 145 143 145 143
225 240 272 293 295 280 270 303 310 303 262 210 205 203 170 198 195 208 223 209 204 182 174 179 185 187 188 188 184 181 179 176 170 162 154 148 145 146
238 220 239 125 35 295 288 317 290 274 255 229 226 212 195 192 219 225 218 206 207 190 176 185 177 186 195 200 194 187 178 175 174 172 167 164 161 159
234 224 217 206 190 189 190 213 319 273 286 276 253 237 233 228 232 242 220 213 226 194 188 219 187 188 187 185 187 182 179 177 177 177 176 174 173 172
230 246 261 242 190 215 219 219 232 247 240 247 267 267 263 241 241 257 250 245 233 209 198 237 207 198 188 186 177 179 181 182 182 182 183 183 183 183
233 231 240 241 259 266 250 237 234 239 243 238 241 262 262 253 232 238 245 248 245 230 209 230 229 212 194 172 177 179 183 185 186 187 188 189 189 190
241 236 228 225 234 242 244 249 252 252 247 251 244 237 244 250 246 244 246 241 251 240 211 219 226 225 201 184 185 184 186 189 191 192 193 193 192 189
236 227 217 217 218 226 237 239 245 249 251 246 237 240 234 233 229 220 228 240 248 247 217 210 223 219 231 200 179 181 193 201 200 199 198 197 192 189
251 240 222 196 213 230 243 247 247 256 249 239 233 230 226 227 223 224 229 235 245 251 223 205 228 229 210 204 201 194 187 191 196 205 203 203 200 196
264 261 233 219 232 239 241 244 248 253 252 245 239 236 233 232 230 226 227 229 239 245 234 217 231 233 223 217 223 203 201 193 186 194 195 197 208 213
273 291 279 249 246 242 238 234 234 239 244 248 243 238 229 230 233 227 223 229 242 252 244 232 227 233 226 224 218 204 203 205 197 194 191 190 198 200
271 283 269 248 243 242 235 224 223 232 238 245 247 242 232 225 228 226 226 220 231 248 247 238 227 227 234 233 221 216 206 199 196 199 193 197 202 203
274 266 261 244 234 233 230 225 222 224 233 245 251 249 242 240 237 229 221 223 229 240 246 239 226 222 230 230 226 221 213 211 200 195 197 208 210 206
225 253 256 253 247 244 244 240 232 231 229 229 236 241 243 239 239 236 228 230 240 243 243 234 227 233 253 254 226 227 222 218 211 204 205 213 218 206
225 250 254 255 256 253 247 250 251 243 233 236 238 242 246 248 243 241 235 232 238 243 247 239 220 213 231 247 246 217 220 224 211 206 211 219 223 209
235 247 256 258 257 252 253 257 259 258 245 240 246 250 252 257 253 246 243 242 244 246 251 243 227 219 226 239 244 241 222 217 214 217 219 223 230 214
249 246 248 255 255 249 249 253 255 254 257 255 251 252 253 256 260 257 252 254 247 245 251 253 245 232 224 222 240 247 234 215 211 213 210 204 214 218
251 253 255 259 264 262 253 248 246 247 249 246 246 245 251 256 259 262 261 256 249 251 255 254 240 227 225 231 246 250 241 230 231 230 222 210 205 214
275 278 274 267 262 257 258 256 254 250 247 253 245 241 250 256 262 264 266 264 266 265 258 250 242 232 233 235 244 250 246 230 226 228 244 241 229 228